Lid_Strength_Index
-2 -1 -0 0 -0 0 2 3 2 1 1 0 1 2 3 3 2 4 7 5 3 -1 0 3 4 4 5 6 6 7 12 15 14 14 13 10 11 9 8 9 9 8 9 8 7
-2 -2 -2 -1 -0 -0 0 3 2 1 1 0 1 2 3 2 5 7 3 1 -0 -1 3 5 6 5 7 7 7 9 12 13 11 10 11 10 10 9 10 9 9 9 7 7 7
-2 -2 -2 -1 -0 -0 0 2 2 1 1 1 1 2 2 4 8 8 1 -0 -2 -0 3 4 5 6 8 7 8 9 11 10 9 9 9 9 9 8 10 11 9 9 8 7 7
-2 -2 -1 -1 -0 -0 0 1 2 0 0 0 1 1 2 5 14 6 -1 -1 -1 2 3 5 6 8 9 9 7 10 9 9 9 8 9 10 9 9 9 9 7 7 6 6 7
-2 -2 -2 -0 -0 1 1 0 1 0 -0 0 1 1 5 10 10 4 -0 -0 2 3 4 6 7 7 10 8 8 10 9 8 8 8 8 8 9 9 8 7 6 6 6 7 7
-2 -2 -1 -1 -0 1 1 1 1 1 -0 0 1 2 7 13 6 4 2 2 2 2 3 4 5 5 7 8 9 8 8 8 7 7 7 8 8 8 7 6 6 6 6 6 6
-2 -2 -1 -1 -0 1 1 1 0 -0 -0 0 2 4 9 10 5 3 2 3 2 2 4 3 3 5 6 9 7 7 10 9 8 8 8 8 10 10 7 6 6 6 5 5 5
-2 -2 -1 -1 -0 1 1 2 2 0 0 1 2 6 10 5 4 4 3 4 2 2 2 2 3 5 7 6 8 10 10 14 10 9 8 8 13 9 7 7 8 7 6 5 4
-2 -2 -1 -1 0 1 1 1 1 0 0 2 5 8 9 3 6 4 4 6 5 3 3 2 3 6 7 10 12 11 15 14 12 8 9 9 12 8 7 8 8 7 6 6 5
-1 -1 -1 0 1 0 0 0 1 2 3 4 5 10 8 9 7 6 6 4 5 4 5 5 7 9 10 12 17 16 15 13 13 10 10 11 11 9 8 8 9 8 7 7 6
1 1 1 1 2 2 4 7 10 9 8 10 10 10 8 6 6 6 5 5 5 7 10 7 11 13 11 10 10 12 13 14 12 10 11 11 11 11 9 9 9 8 8 8 7
2 2 2 2 2 2 6 9 7 8 11 8 8 8 7 7 9 7 5 8 9 11 9 10 13 9 9 9 10 11 13 13 11 9 11 12 12 10 9 9 9 9 9 8 7
1 2 2 2 2 5 6 6 5 7 12 10 8 9 8 8 10 8 7 8 10 11 10 12 11 8 9 10 12 12 13 14 14 11 11 12 13 11 10 9 9 9 9 8 8
2 2 2 3 6 7 8 6 6 7 17 14 10 9 8 8 10 7 5 8 9 11 11 12 9 10 10 11 10 14 10 11 12 13 16 11 18 13 11 11 10 10 10 9 9
3 3 3 4 9 9 8 6 6 11 24 13 11 7 8 10 10 9 6 8 11 11 11 13 12 12 12 11 10 12 10 11 12 14 14 14 17 13 11 13 12 11 11 10 9
3 3 4 6 8 7 6 7 11 19 25 15 11 11 12 11 10 9 10 9 9 12 13 12 10 11 10 9 9 8 11 11 12 14 18 15 15 15 14 13 12 12 11 10 9
3 3 5 6 9 7 7 11 19 22 15 15 14 12 13 13 12 12 13 14 15 18 18 14 13 12 10 11 9 10 13 18 19 20 19 14 16 15 12 11 12 12 12 11 10
4 5 6 6 7 8 10 15 22 16 16 13 13 13 15 13 14 14 15 17 14 15 18 18 19 13 11 12 13 12 13 19 23 22 19 15 18 15 11 10 10 11 11 11 11
5 9 9 8 7 9 13 17 18 16 14 14 14 16 16 15 15 16 17 17 15 14 17 19 18 12 12 11 12 13 15 12 17 19 19 17 15 13 11 12 12 12 12 12 11
10 11 10 8 8 11 15 15 16 13 13 14 17 17 18 17 17 17 19 16 16 14 14 16 19 14 12 12 12 13 12 17 17 23 22 19 17 16 14 13 12 13 13 12 11
11 12 9 9 10 13 19 17 15 12 13 15 17 17 18 18 18 19 18 16 15 15 15 15 17 17 15 15 15 15 16 15 15 16 21 23 19 11 12 12 13 13 12 12 11
12 15 9 10 15 17 18 15 12 14 13 14 15 16 18 18 19 19 19 17 15 15 17 16 18 21 18 14 14 15 16 16 19 19 19 21 19 11 11 11 12 13 12 11 11
14 14 10 11 19 20 16 15 14 15 15 16 16 16 17 18 19 18 17 14 15 15 16 15 21 26 21 18 16 17 16 16 19 19 18 20 19 10 11 11 11 12 12 12 11
14 16 14 14 15 16 17 17 17 14 15 15 17 16 18 19 18 19 19 15 15 15 12 15 21 23 24 21 18 19 17 17 18 23 21 19 17 14 12 11 11 11 12 11 11
15 16 16 18 17 17 16 16 17 17 16 16 17 18 19 20 21 20 19 18 17 15 16 18 24 21 19 19 18 18 17 17 22 19 21 18 17 14 12 11 11 11 11 11 11
15 15 16 17 17 18 16 17 17 17 17 18 18 18 19 20 20 21 19 20 20 18 19 18 24 24 25 18 18 18 17 17 17 17 17 17 17 14 12 11 10 11 11 11 11
14 14 14 16 17 18 17 16 16 16 16 16 17 18 19 18 17 18 17 18 18 20 19 20 23 25 25 21 23 25 20 17 17 16 16 18 16 13 12 12 11 10 10 11 10